TimeCST,TemperatureF,Dew PointF,Humidity,Sea Level PressureIn,VisibilityMPH,Wind Direction,Wind SpeedMPH,Gust SpeedMPH,PrecipitationIn,Events,Conditions,WindDirDegrees,DateUTC
12:15 AM,10.2,4.1,76,30.41,10.0,WSW,4.6,-,N/A,,Clear,250,2012-11-27 06:15:00
12:35 AM,10.9,4.1,74,30.40,10.0,WSW,4.6,-,N/A,,Clear,240,2012-11-27 06:35:00
12:55 AM,10.8,4.5,76,30.40,10.0,WSW,5.8,-,N/A,,Clear,240,2012-11-27 06:55:00
4:35 AM,14.0,6.8,73,30.37,10.0,WSW,8.1,-,N/A,,Clear,240,2012-11-27 10:35:00
5:15 AM,13.5,6.8,75,30.36,10.0,WSW,9.2,-,N/A,,Clear,240,2012-11-27 11:15:00
5:35 AM,13.1,6.4,75,30.36,10.0,WSW,6.9,-,N/A,,Clear,240,2012-11-27 11:35:00
5:55 AM,12.7,6.3,75,30.36,10.0,SW,5.8,-,N/A,,Clear,230,2012-11-27 11:55:00
6:15 AM,12.2,6.3,77,30.36,10.0,SSW,6.9,-,N/A,,Clear,210,2012-11-27 12:15:00
6:35 AM,13.6,7.3,76,30.36,10.0,SSW,6.9,-,N/A,,Clear,210,2012-11-27 12:35:00
6:55 AM,14.0,7.5,75,30.35,10.0,SSW,6.9,-,N/A,,Clear,210,2012-11-27 12:55:00
7:15 AM,13.8,7.7,77,30.35,10.0,SSW,6.9,-,N/A,,Clear,210,2012-11-27 13:15:00
7:35 AM,13.8,7.7,77,30.35,10.0,South,4.6,-,N/A,,Clear,180,2012-11-27 13:35:00
8:15 AM,15.6,9.1,76,30.35,10.0,SSW,8.1,-,N/A,,Clear,210,2012-11-27 14:15:00
8:35 AM,16.9,10.0,75,30.35,10.0,SSW,8.1,-,N/A,,Clear,210,2012-11-27 14:35:00
8:55 AM,18.3,10.6,72,30.34,10.0,SSW,9.2,-,N/A,,Clear,200,2012-11-27 14:55:00
9:15 AM,19.2,11.3,71,30.33,10.0,South,11.5,-,N/A,,Clear,190,2012-11-27 15:15:00
9:35 AM,21.7,12.9,69,30.33,10.0,SSW,10.4,-,N/A,,Clear,200,2012-11-27 15:35:00
9:55 AM,23.9,14.2,66,30.33,10.0,SSW,11.5,-,N/A,,Clear,200,2012-11-27 15:55:00
10:15 AM,25.0,14.2,64,30.32,10.0,SSW,12.7,-,N/A,,Clear,200,2012-11-27 16:15:00
10:35 AM,27.3,14.4,58,30.32,10.0,SSW,13.8,-,N/A,,Clear,200,2012-11-27 16:35:00
10:55 AM,27.5,13.6,56,30.32,10.0,SSW,12.7,18.4,N/A,,Clear,200,2012-11-27 16:55:00
11:15 AM,28.4,12.9,52,30.31,10.0,SSW,15.0,-,N/A,,Clear,210,2012-11-27 17:15:00
11:35 AM,29.3,12.9,51,30.29,10.0,South,13.8,-,N/A,,Clear,190,2012-11-27 17:35:00
11:55 AM,30.9,12.7,47,30.28,10.0,SSW,17.3,-,N/A,,Clear,210,2012-11-27 17:55:00
12:15 PM,32.0,12.9,45,30.26,10.0,SSW,15.0,-,N/A,,Clear,200,2012-11-27 18:15:00
12:35 PM,32.9,13.5,45,30.25,10.0,South,15.0,-,N/A,,Mostly Cloudy,190,2012-11-27 18:35:00
12:55 PM,32.9,12.9,44,30.24,10.0,South,16.1,-,N/A,,Scattered Clouds,190,2012-11-27 18:55:00
1:15 PM,33.3,12.9,43,30.22,10.0,SSW,15.0,23.0,N/A,,Scattered Clouds,200,2012-11-27 19:15:00
1:35 PM,33.8,12.6,42,30.21,10.0,SSW,16.1,-,N/A,,Scattered Clouds,200,2012-11-27 19:35:00
1:55 PM,33.3,12.2,42,30.20,10.0,South,15.0,-,N/A,,Scattered Clouds,190,2012-11-27 19:55:00
2:15 PM,33.3,12.4,42,30.19,10.0,South,16.1,-,N/A,,Scattered Clouds,190,2012-11-27 20:15:00
2:35 PM,33.8,13.1,43,30.19,10.0,SSW,16.1,25.3,N/A,,Clear,210,2012-11-27 20:35:00
2:55 PM,34.3,13.3,42,30.18,10.0,SSW,16.1,19.6,N/A,,Clear,200,2012-11-27 20:55:00
3:35 PM,34.7,13.1,41,30.17,10.0,SSW,16.1,-,N/A,,Clear,200,2012-11-27 21:35:00
3:55 PM,33.8,12.9,42,30.17,10.0,SSW,12.7,-,N/A,,Clear,200,2012-11-27 21:55:00
4:15 PM,33.1,13.1,44,30.18,10.0,SSW,13.8,-,N/A,,Mostly Cloudy,200,2012-11-27 22:15:00
4:35 PM,33.1,13.6,45,30.17,10.0,South,11.5,-,N/A,,Overcast,190,2012-11-27 22:35:00
4:55 PM,32.4,13.5,46,30.19,10.0,SSW,10.4,-,N/A,,Overcast,200,2012-11-27 22:55:00
5:15 PM,32.0,14.0,48,30.19,10.0,SSW,9.2,-,N/A,,Overcast,200,2012-11-27 23:15:00
5:35 PM,32.0,14.0,48,30.19,10.0,South,9.2,-,N/A,,Overcast,190,2012-11-27 23:35:00
5:55 PM,32.0,14.4,48,30.19,10.0,South,8.1,-,N/A,,Overcast,190,2012-11-27 23:55:00
6:15 PM,32.0,14.5,49,30.19,10.0,SSW,10.4,-,N/A,,Overcast,200,2012-11-28 00:15:00
6:35 PM,32.0,14.5,49,30.19,10.0,SSW,11.5,-,N/A,,Overcast,200,2012-11-28 00:35:00
6:55 PM,32.0,14.5,49,30.19,10.0,SSW,10.4,-,N/A,,Overcast,200,2012-11-28 00:55:00
7:15 PM,32.0,14.9,49,30.20,10.0,SSW,8.1,-,N/A,,Overcast,200,2012-11-28 01:15:00
7:35 PM,32.4,15.3,49,30.20,10.0,SSW,11.5,-,N/A,,Overcast,210,2012-11-28 01:35:00
8:15 PM,33.3,16.7,51,30.20,10.0,SW,12.7,-,N/A,,Overcast,220,2012-11-28 02:15:00
8:35 PM,32.5,16.9,53,30.20,10.0,SW,12.7,-,N/A,,Overcast,230,2012-11-28 02:35:00
8:55 PM,31.5,17.1,55,30.21,10.0,SW,11.5,-,N/A,,Scattered Clouds,230,2012-11-28 02:55:00
9:15 PM,30.9,16.5,55,30.21,10.0,WSW,10.4,-,N/A,,Clear,240,2012-11-28 03:15:00
9:35 PM,30.6,16.2,55,30.22,10.0,WSW,10.4,-,N/A,,Clear,240,2012-11-28 03:35:00
9:55 PM,28.2,15.8,60,30.22,10.0,WSW,10.4,-,N/A,,Clear,240,2012-11-28 03:55:00
10:15 PM,27.1,15.6,62,30.22,10.0,WSW,8.1,-,N/A,,Clear,250,2012-11-28 04:15:00
10:35 PM,25.2,15.1,66,30.23,10.0,WSW,9.2,-,N/A,,Clear,250,2012-11-28 04:35:00
11:15 PM,23.9,15.4,70,30.24,10.0,West,8.1,-,N/A,,Clear,260,2012-11-28 05:15:00
11:35 PM,24.1,15.8,71,30.24,10.0,West,8.1,-,N/A,,Clear,280,2012-11-28 05:35:00
11:55 PM,21.9,14.9,74,30.25,10.0,West,8.1,-,N/A,,Clear,280,2012-11-28 05:55:00